Regional Weather Roundup
Issued by NWS

Home | Current Version | Previous Version | Text Only | Print | Product List | Glossary On
Versions: 1 2 3 4 5 6 7 8 9 10 11 12 13 14 15 16 17 18 19 20 21 22 23 24 25 26 27 28 29 30 31 32 33 34 35 36 37 38 39 40 41 42 43 44 45 46 47 48 49 50
000
ASUS42 KFFC 200710
RWRGA
WEATHER ROUNDUP FOR GEORGIA
NATIONAL WEATHER SERVICE PEACHTREE CITY GA
300 AM EDT WED SEP 20 2017

NOTE: "FAIR" INDICATES FEW OR NO CLOUDS BELOW 12,000 FEET WITH NO
SIGNIFICANT WEATHER AND/OR OBSTRUCTIONS TO VISIBILITY.

* = USE WITH CAUTION. THE STATIONS MARKED WITH AN ASTERISK MAY NOT
REPORT WEATHER SUCH AS PRECIPITATION, FOG, OR THUNDER AND ARE NOT
QUALITY CONTROLLED BY NWS.

THE REMARK "TC" DENOTES TEMPERATURE READING IN DEGREES CELSIUS.

GAZ001>058-200800-
NORTH GEORGIA

CITY           SKY/WX    TMP DP  RH WIND       PRES   REMARKS
ATLANTA        PTCLDY    71  69  93 NW5       30.01R
ATHENS         CLEAR     69  68  96 CALM      30.00S
CHAMBLEE       CLEAR     69  66  90 N3        30.01S
PEACHTREE CITY CLEAR     67  66  97 NW3       30.01R FOG
ROME           FOG       68  68 100 W3        30.00F VSB 1/4
WEST ATLANTA   CLEAR     72  69  90 CALM      30.00F
GAINESVILLE    CLEAR     70  68  93 CALM      30.04F
CARTERSVILLE   CLEAR     67  67 100 CALM      30.01F FOG


CITY           SKY/WX    TMP DP  RH WIND       PRES   REMARKS
DALTON*        CLEAR     64  64 100 CALM      30.03F
MARIETTA       CLEAR     71  67  87 NW3       30.01F
KENNESAW*      CLEAR     69  67  93 CALM      30.03F
CANTON*        CLEAR     68  68 100 CALM      30.03F FOG
$$

GAZ059>098-102>109-200800-
CENTRAL GEORGIA

CITY           SKY/WX    TMP DP  RH WIND       PRES   REMARKS
AUGUSTA-BUSH     N/A     69  68  96 CALM      29.97S VSB 1/4
AUGUSTA-DANIEL CLEAR     75  71  87 CALM      29.98F
COLUMBUS       PTCLDY    72  69  90 VRB3      29.98R
MACON          CLOUDY    69  69 100 W3        29.96F
ROBINS AFB     CLEAR     71  70  97 CALM      29.96S


CITY           SKY/WX    TMP DP  RH WIND       PRES   REMARKS
LAGRANGE*      MOCLDY    69  68  98 CALM      30.00S
SYLVANIA*      CLEAR     71  71 100 CALM      29.99F
MILLEDGEVILLE* CLOUDY    72  72 100 CALM      29.97F FOG
$$

GAZ099>101-110>166-200800-
SOUTH GEORGIA

CITY           SKY/WX    TMP DP  RH WIND       PRES   REMARKS
SAVANNAH       PTCLDY    75  72  90 SW3       29.98F
VALDOSTA       PTCLDY    73  73 100 S6        29.97F FOG
ALMA           MOCLDY    75  69  81 S7        29.97F
ST SIMONS      CLEAR     77  74  90 SW5       29.97F
FT STEWART     PTCLDY    72  69  90 SE3       29.96S
ALBANY         CLOUDY    77  73  87 CALM      29.97S
HUNTER AFB     PTCLDY    75  72  90 CALM      29.96S
MOODY AFB      PTCLDY    74  72  94 S3        29.96F
BRUNSWICK      CLEAR     73  70  88 SW3       29.99S


CITY           SKY/WX    TMP DP  RH WIND       PRES   REMARKS
BAINBRIDGE*    CLEAR     73  73 100 S3        29.96F
MOULTRIE*      CLOUDY    75  72  88 CALM      29.97F
VIDALIA*       CLEAR     73  70  88 CALM      29.98S
WAYCROSS*      MOCLDY    73  70  90 S6        29.98F
DOUGLAS*       CLOUDY    72  70  94 CALM      29.98F
$$




USA.gov is the U.S. government's official web portal to all federal, state and local government web resources and services.